Regional Weather Roundup
Issued by NWS Lake Charles, LA

Home | Current Version | Previous Version | Text Only | Print | Product List | Glossary On
Versions: 1 2 3 4 5 6 7 8 9 10 11 12 13 14 15 16 17 18 19 20 21 22 23 24 25 26 27 28 29 30 31 32 33 34 35 36 37 38 39 40 41 42 43 44 45 46 47 48 49 50
000
ASUS44 KLCH 040410
RWRLCH
RWRLCH
REGIONAL WEATHER ROUNDUP
NATIONAL WEATHER SERVICE LAKE CHARLES LA
1100 PM CDT MON AUG 03 2015

Note: "fair" indicates few or no clouds below 12,000 feet with no
significant weather and/or obstructions to visibility.


ACROSS SOUTHEAST TEXAS

CITY           SKY/WX    TMP DP  RH WIND       PRES   REMARKS
BEAUMONT       CLEAR     78  74  87 CALM      29.90R
BEAUMONT CITY    N/A     78  74  88 CALM      29.91R
ORANGE         CLEAR     81  71  71 CALM      29.92R
JASPER         CLEAR     83  72  68 CALM      29.93S
$$

ACROSS CENTRAL LOUISIANA

CITY           SKY/WX    TMP DP  RH WIND       PRES   REMARKS
LEESVILLE      CLEAR     80  68  66 E5        29.90R
FULLERTON        N/A     77  69  76 CALM      29.90R
ALEXANDRIA INT CLEAR     79  71  76 CALM      29.89R
ESLER FIELD    CLEAR     78  71  79 CALM      29.91R
DERIDDER         N/A     79  71  77 CALM      29.93R
OAKDALE          N/A     75  73  92 CALM      29.92R
OPELOUSAS        N/A     80  75  86 CALM      29.92R
$$

ACROSS SOUTHWEST AND SOUTH CENTRAL LOUISIANA

CITY           SKY/WX    TMP DP  RH WIND       PRES   REMARKS
SULPHUR        CLEAR     80  74  81 CALM      29.92R
LAKE CHARLES   CLEAR     79  74  84 CALM      29.91R
CHENNAULT INT  CLEAR     83  74  75 CALM      29.92R
CAMERON PHI    CLEAR     84  75  74 W3        29.94R
DEQUINCY         N/A     78  73  83 CALM      29.92R
JENNINGS         N/A     81  75  83 S3        29.92R
LAFAYETTE      CLEAR     81  76  84 SE3       29.92R
NEW IBERIA     CLEAR     79  74  84 E3        29.93R
ABBEVILLE        N/A     77  75  94 CALM      29.92S
PATTERSON      CLEAR     77  73  88 NE3       29.93S
SALT POINT       N/A     79  77  94 MISG      29.90R
$$

SELECTED SITES ACROSS THE REGION

CITY           SKY/WX    TMP DP  RH WIND       PRES   REMARKS
HOUSTON BUSH   PTCLDY    83  73  72 S5        29.90R
HOUSTON HOBBY  PTCLDY    82  74  76 SW5       29.90R
GALVESTON      PTCLDY    85  76  74 SW8       29.91R
COLLEGE STAT   CLEAR     84  73  69 S8        29.90S
CONROE         CLEAR     80  69  69 CALM      29.91R
HUNTSVILLE     CLEAR     83  68  60 S6        29.91R
LUFKIN         CLEAR     77  69  76 CALM      29.89R
SHREVEPORT     PTCLDY    84  67  56 E6        29.90R
MONROE         CLEAR     77  71  82 CALM      29.91S
NATCHEZ MS     CLEAR     79  72  78 CALM      29.93R
BATON ROUGE    CLEAR     82  74  76 S5        29.92R
N.O. INTL ARPT PTCLDY    80  72  76 S8        29.93R
SLIDELL        CLEAR     78  75  90 CALM      29.92R
$$

MARINE REPORTS

STATION/POSITION TIME  TEMP    WIND        PRES    VSBY  WAVE
                       AIR SEA DIR/SP/G                  HT/PER
                 (UTC) (F)     (DEG/KT/KT) (MB)    (MI)  (FT/S)
BUOY 30 S HIGH I 0350   85 87  210/ 12/ 14 1012.1R         2/ 5
SEA RIM ST PARK  0300   84     230/  8/  9 1012.8R
PORT ARTHUR      0300      90  230/  8/ 10 1012.4R
SABINE PASS N    0300   84 89  230/  3/  7 1012.4R
TEXAS POINT      NOT AVBL
CALCASIEU PASS   0300   86 88  260/  9/ 10 1011.6R
LK CHARLES BEACH 0300   85 89                N/A
MARSH ISLAND     0300   83     100/  5/  7   N/A           0
FRESH WATER LOCK 0300   81 89   60/  3/  4 1012.7R
AMERADA PASS     0300   80 87   60/  3/  5 1012.6R
$$


USA.gov is the U.S. government's official web portal to all federal, state and local government web resources and services.